DW6120 Weather Reports


Display with metric or nautical units.
time (UTC)temp
F
wind
direction
speed
MPH
gust
MPH
rain 1hr
in
rain 24hr
in
rain mn
in
humidity
%
barometer
mb
20260902060101 72 158 3.0 14.0 0.00 0.01 0.01 43 1006.9
20260902054558 72 98 10.0 17.0 0.00 0.01 0.01 43 1007.1
20260902053054 72 153 5.0 13.0 0.00 0.01 0.01 43 1007.2
20260902051553 72 155 4.0 8.0 0.00 0.01 0.01 43 1007.3
20260902050053 72 162 6.0 12.0 0.00 0.01 0.01 43 1007.5
20260902044557 72 125 9.0 14.0 0.00 0.01 0.01 43 1007.6
20260902043055 72 144 3.0 7.0 0.00 0.01 0.01 44 1007.7
20260902041607 73 135 2.0 14.0 0.00 0.01 0.01 44 1007.8
20260902040054 72 145 4.0 14.0 0.00 0.01 0.01 44 1007.7
20260902034552 73 110 6.0 11.0 0.00 0.01 0.01 43 1007.5
20260902033052 72 146 5.0 14.0 0.00 0.01 0.01 44 1007.7
20260902031556 72 145 4.0 11.0 0.00 0.01 0.01 44 1007.5
20260902030053 73 226 6.0 10.0 0.00 0.01 0.01 43 1007.4
20260902024605 73 99 4.0 15.0 0.00 0.01 0.01 43 1007.2
20260902023101 73 174 5.0 12.0 0.00 0.01 0.01 43 1007.2
20260902021557 73 110 11.0 19.0 0.00 0.01 0.01 42 1007.2
20260902020051 73 131 9.0 16.0 0.00 0.01 0.01 44 1007.2
20260902014502 74 146 11.0 23.0 0.00 0.01 0.01 42 1007.4
20260902013001 74 138 6.0 21.0 0.00 0.01 0.01 42 1007.4
20260902011608 75 93 5.0 15.0 0.00 0.01 0.01 41 1007.4
20260902010041 76 123 6.0 19.0 0.00 0.01 0.01 42 1007.7
20260902004547 76 124 3.0 9.0 0.00 0.01 0.01 43 1007.9
20260902003042 75 182 3.0 20.0 0.00 0.02 0.01 43 1008.1
20260902001540 76 204 5.0 9.0 0.00 0.02 0.01 42 1008.0
20260902000039 75 192 4.0 12.0 0.00 0.02 0.01 43 1008.2
20260901234540 76 182 6.0 15.0 0.00 0.02 0.01 41 1008.3
20260901233053 76 192 8.0 22.0 0.00 0.05 0.01 41 1008.3
20260901231541 77 82 9.0 19.0 0.00 0.05 0.01 40 1008.4
20260901230038 76 95 9.0 21.0 0.00 0.05 0.01 41 1008.5
20260901224534 76 132 3.0 17.0 0.00 0.05 0.01 41 1008.8
20260901223034 75 217 3.0 15.0 0.00 0.05 0.01 43 1008.9
20260901221534 75 151 2.0 10.0 0.01 0.05 0.01 45 1009.2
20260901220034 74 166 6.0 13.0 0.01 0.05 0.01 44 1009.7
20260901214538 73 229 7.0 19.0 0.01 0.05 0.01 46 1010.1
20260901213032 70 98 16.0 23.0 0.01 0.05 0.01 50 1010.3
20260901211531 76 161 2.0 18.0 0.00 0.04 0.00 43 1010.2
20260901210028 77 156 2.0 13.0 0.00 0.04 0.00 42 1010.1
20260901204522 76 261 4.0 17.0 0.00 0.04 0.00 42 1010.2
20260901203021 76 224 8.0 15.0 0.00 0.04 0.00 45 1010.5
20260901201520 74 181 3.0 14.0 0.00 0.04 0.00 47 1011.3
20260901200030 75 144 6.0 15.0 0.00 0.04 0.00 44 1011.3
20260901194523 75 287 6.0 15.0 0.00 0.04 0.00 46 1011.3
20260901193021 74 224 7.0 15.0 0.00 0.04 0.00 45 1011.4
20260901191518 73 111 7.0 19.0 0.00 0.04 0.00 44 1011.3
20260901190016 72 112 6.0 24.0 0.00 0.04 0.00 50 1011.7
20260901184512 72 153 6.0 22.0 0.00 0.04 0.00 49 1011.8
20260901183013 71 129 7.0 26.0 0.00 0.04 0.00 49 1012.0
20260901181517 71 137 10.0 26.0 0.00 0.04 0.00 50 1012.0
20260901180010 71 113 8.0 31.0 0.00 0.04 0.00 46 1012.1
20260901174510 71 157 4.0 19.0 0.00 0.04 0.00 50 1012.1
20260901173010 71 129 12.0 29.0 0.00 0.04 0.00 46 1012.0
20260901171508 72 146 7.0 29.0 0.00 0.04 0.00 50 1012.1
20260901170006 71 119 18.0 36.0 0.00 0.04 0.00 48 1011.5
20260901164503 70 123 18.0 35.0 0.00 0.04 0.00 52 1011.7
20260901163002 69 109 18.0 30.0 0.00 0.04 0.00 53 1011.6
20260901161503 69 138 17.0 34.0 0.00 0.04 0.00 53 1011.6
20260901160001 69 123 19.0 30.0 0.00 0.04 0.00 53 1011.8
20260901154603 69 138 10.0 16.0 0.00 0.04 0.00 54 1011.9
20260901153116 68 209 7.0 24.0 0.00 0.04 0.00 55 1012.0
20260901151555 67 121 12.0 23.0 0.00 0.04 0.00 56 1012.0
20260901150051 65 151 15.0 23.0 0.00 0.04 0.00 65 1011.8
20260901144552 58 213 2.0 7.0 0.00 0.04 0.00 75 1011.9
20260901143049 57 227 3.0 7.0 0.00 0.04 0.00 75 1012.0
20260901141552 57 57 0.0 5.0 0.00 0.04 0.00 75 1012.0
20260901140047 56 283 1.0 9.0 0.00 0.04 0.00 75 1011.9
20260901134544 56 78 2.0 9.0 0.00 0.04 0.00 75 1011.6
20260901133043 56 55 6.0 9.0 0.00 0.04 0.00 74 1011.6
20260901131542 56 150 3.0 5.0 0.00 0.04 0.00 74 1011.7
20260901130042 55 23 1.0 4.0 0.00 0.04 0.00 77 1011.4
20260901124541 54 30 1.0 6.0 0.00 0.04 0.00 78 1011.3
20260901123042 54 173 2.0 4.0 0.00 0.04 0.00 78 1011.4
20260901121541 54 207 1.0 5.0 0.00 0.04 0.00 78 1011.5
20260901120038 54 170 1.0 4.0 0.00 0.04 0.00 78 1011.4
20260901114538 54 159 2.0 5.0 0.00 0.04 0.00 78 1011.1
20260901113037 54 146 1.0 5.0 0.00 0.04 0.00 78 1010.8
20260901111537 54 161 1.0 5.0 0.00 0.04 0.00 80 1011.1
20260901110037 54 211 2.0 4.0 0.00 0.04 0.00 79 1011.2
20260901104540 54 126 3.0 8.0 0.00 0.04 0.00 78 1011.2
20260901103035 55 148 3.0 5.0 0.00 0.04 0.00 78 1011.2
20260901101542 56 172 2.0 6.0 0.00 0.04 0.00 77 1011.1
20260901100034 56 5 1.0 5.0 0.00 0.04 0.00 78 1011.3
20260901094538 55 273 2.0 4.0 0.00 0.04 0.00 83 1011.3
20260901093033 55 200 1.0 6.0 0.00 0.04 0.00 84 1011.1
20260901091530 56 217 1.0 8.0 0.00 0.04 0.00 82 1011.1
20260901090029 55 40 1.0 8.0 0.00 0.04 0.00 84 1011.0
20260901084526 55 208 1.0 8.0 0.00 0.04 0.00 83 1011.2
20260901083025 56 165 3.0 9.0 0.00 0.04 0.00 83 1011.4
20260901081525 56 288 3.0 8.0 0.00 0.04 0.00 84 1011.2
20260901080023 56 142 2.0 8.0 0.00 0.04 0.00 84 1011.4
20260901074523 56 311 3.0 8.0 0.00 0.04 0.00 85 1011.3
20260901073021 55 21 2.0 5.0 0.00 0.04 0.00 84 1011.3
20260901071520 56 201 0.0 3.0 0.00 0.04 0.00 83 1011.3
20260901070018 56 221 1.0 4.0 0.00 0.04 0.00 84 1011.4
20260901064518 56 34 1.0 6.0 0.00 0.04 0.00 84 1011.2
20260901063020 56 133 1.0 3.0 0.00 0.04 0.04 84 1011.6
20260901061515 56 82 1.0 3.0 0.00 0.04 0.04 83 1011.5